STARLINK-37228, 68570

Orbit data source: Space-Track

STARLINK-37228, 68570 is a payload satellite owned by SpaceX/Seattle (US) in LEO that was launched on Thu, 02 Apr 2026 UTC via an FALCON 9 launch vehicle from the Air Force Eastern Test Range (AFETR). Payload-class satellites include a variety of spacecraft equipped with specific instruments for various scientific and technological missions. These include communications satellites like Starlink; space stations such as the ISS; scientific satellites like the Hubble; Earth observation satellites from companies like Planet Labs, Umbra, and HawkEye 360; GPS; miniature CubeSats for education and research; and military/defense satellites.

Loading next visibility...
Identifier
68570, 2026-070AE
Orbit
LEO
Country
Flag of USUS
Related business
Manufacturer
SpaceX/Seattle
Mission
Operational spacecraft
Bus & Motor
STARLINK V2MO, Unknown motor
Mass
575 kg wet, ~530 kg dry
Launch date (UTC)
2026-04-02 (2 months ago)
Launch vehicle
FALCON 9
Launch site
Air Force Eastern Test Range (AFETR)
Object type
Payload
Rocket body
Debris
Shape & HBR
Unknown shape, 14.5 m
Radar Cross Section
RCS unknown

Expand to show TLE details & history
Last TLE update: 12 hours ago

TLE from 12 hours ago
0 STARLINK-37228
1 68570U 26070AE  26145.60758593  .00033799  00000-0  10066-2 0  9998
2 68570  53.1609   5.1482 0001512  90.2850 269.8326 15.34412749  8335
Epoch: 2026-05-25T14:34Z
TLE epoch observation values (Epoch: 2026-05-25T14:34:55.424Z)
Latitude
-0°
Longitude
-96.77568°
Altitude
463.57 km
Speed
7.636 km/s
True Right ascension
00h 20m 35s
True Declination
0° 00' 00"
Sunlit
Object was in daylight at epoch
Visualization orbit readout
Latitude
Unknown
Longitude
Unknown
Altitude
Unknown
Speed
Unknown
Apparent Right ascension
Unknown
Apparent Declination
Unknown
Sunlit
N/A
Visualization observer readout
Local Sidereal Time
12:08:00
Azimuth
Unknown
Elevation
Unknown
Doppler factor
Unknown
Orbital elements
Apogee altitude
463.956 km
Perigee altitude
461.888 km
Semi-major axis
6,841.059 km
Eccentricity
0.00015
Inclination
53.1609°
RAAN
5.1482°
Arg. of periapsis
90.285°
True anomaly
269.81527°
Mean anomaly
269.8326°
Eccentric anomaly
269.82394°
Mean motion
3.83582 °/min
Orbital period
93.85 mins
BSTAR
0.0010066
Loading maneuver chart data...
Computing Atmospheric mass density...
Loading historical data...
Loading historical data...
Loading historical data...
Loading historical data...
Loading historical data...
Loading historical data...
Loading historical data...

Documentation

Showing up to 5 results
|